Regional Weather Roundup
Issued by NWS

Home | Current Version | Previous Version | Text Only | Print | Product List | Glossary On
Versions: 1 2 3 4 5 6 7 8 9 10 11 12 13 14 15 16 17 18 19 20 21 22 23 24 25 26 27 28
000
ASUS46 KSEW 181610
RWRWA

WASHINGTON REGIONAL WEATHER ROUNDUP
NATIONAL WEATHER SERVICE SEATTLE WA
800 AM PST WED JAN 18 2017

NOTE:"FAIR" INDICATES FEW OR NO CLOUDS BELOW 12,000 FEET WITH NO
SIGNIFICANT WEATHER AND/OR OBSTRUCTIONS TO VISIBILITY.

WAZ507-509-555>559-181700-
SEATTLE, TACOMA, EVERETT, AND VICINITY

CITY           SKY/WX    TMP DP  RH WIND       PRES   REMARKS
EVERETT        CLOUDY    44  42  93 E12G20    29.33R FOG
BOEING FIELD   LGT RAIN  46  44  93 S9        29.34R
RENTON         LGT RAIN  45  42  89 VRB5G18   29.32F FOG
SEATAC AIRPORT RAIN      45  43  93 SE6       29.33S
JBLM-MCCHORD   LGT RAIN  50  50 100 SW8       29.34R FOG
PUYALLUP       DRIZZLE   52  52 100 S6        29.32F
BREMERTON      CLOUDY    48  48 100 S5        29.34F
JBLM-FT LEWIS  LGT RAIN  50  50 100 S5        29.32R FOG
TACOMA NARROWS RAIN      49  49 100 S5        29.33F FOG
$$

WAZ001-503-506-510-514-515-181700-
NORTH INTERIOR

CITY           SKY/WX    TMP DP  RH WIND       PRES   REMARKS
BELLINGHAM     CLOUDY    48  46  93 VRB7      29.27F
FRIDAY HARBOR  LGT RAIN  50  45  83 SE16G29   29.24S
EASTSOUND      CLOUDY    50  46  87 S12G18    29.22F
PORT ANGELES   RAIN      43  43 100 SW5       29.21R FOG
EDIZ HOOK      LGT RAIN  45  44  96 CALM      29.21R
PORT TOWNSEND    N/A    N/A N/A N/A SE13      29.28R
NAS WHIDBEY    LGT RAIN  51  44  77 SE21      29.31F
ARLINGTON      NOT AVBL
BURLINGTON     CLOUDY    48  45  87 E7        29.30R
$$

WAZ020-022-039-040-504-511-512-181700-
SOUTHWEST INTERIOR

CITY           SKY/WX    TMP DP  RH WIND       PRES   REMARKS
SHELTON        LGT RAIN  45  44  97 CALM      29.31R FOG
OLYMPIA        LGT RAIN  51  50  96 S15G26    29.32S FOG
CHEHALIS       DRIZZLE   52  52 100 S15G22    29.34R
KELSO          CLOUDY    41  40  96 SE14G22   29.41R
VANCOUVER      LGT RAIN  36  32  85 SE12      29.43F FOG
SCAPPOOSE, OR  LGT RAIN  37  37 100 SW5       29.45R FOG
PORTLAND, OR   LGT RAIN  35  35 100 SE17      29.43F WCI  25
$$

WAZ021-516-517-181700-
WASHINGTON COAST

CITY           SKY/WX    TMP DP  RH WIND       PRES   REMARKS
FORKS          LGT RAIN  50  50 100 S20G40    29.15S FOG
HOQUIAM        CLOUDY    52  50  93 S30G44    29.29R FOG
ASTORIA, OR    CLOUDY    56  48  74 S26G45    29.32R
$$

WAZ019-023-024-040-567>569-181700-
CASCADE MOUNTAINS AND COLUMBIA GORGE

CITY           SKY/WX    TMP DP  RH WIND       PRES   REMARKS
STAMPEDE PASS  NOT AVBL
TROUTDALE, OR  CLOUDY    36  31  82 E28G38    29.44F
THE DALLES, OR MOCLDY    24  21  88 SW6       29.66F FOG
$$

WAZ026-027-041>044-520-521-181700-
EAST SLOPES

CITY           SKY/WX    TMP DP  RH WIND       PRES   REMARKS
OMAK           LGT SNOW  24  20  84 CALM      29.65F VSB 3/4
WENATCHEE      CLOUDY    20  18  92 W3        29.66F
ELLENSBURG     MIX PCPN  25  21  85 W3        29.59F
YAKIMA         MIX PCPN  28  24  85 CALM      29.64S FOG
$$

WAZ028-034-035-181700-
COLUMBIA BASIN

CITY           SKY/WX    TMP DP  RH WIND       PRES   REMARKS
EPHRATA        FRZ RAIN  29  23  78 NW5       29.62F
MOSES LAKE     CLOUDY    27  25  92 CALM      29.63F FOG
PASCO          FRZ RAIN  25  23  92 W6        29.70F
HERMISTON, OR  CLOUDY    22  19  89 MISG      29.64F FOG
$$

WAZ036>038-181700-
NORTHEAST WASHINGTON

CITY           SKY/WX    TMP DP  RH WIND       PRES   REMARKS
SPOKANE GEIGER LGT RAIN  36  33  89 SE13      29.63F
SPOKANE FELTS  LGT RAIN  34  33  96 N5        29.66F FOG
FAIRCHILD AFB  LGT RAIN  35  35 100 S13       29.62S WCI  26
COEURDALENE,ID RAIN      35  34  96 VRB5      29.68S
DEER PARK      RAIN      33  31  92 CALM      29.66S FOG
$$

WAZ029>033-181700-
SOUTHEAST WASHINGTON

CITY           SKY/WX    TMP DP  RH WIND       PRES   REMARKS
PULLMAN        LGT RAIN  35  29  78 SE25G31   29.70F WCI  23
LEWISTON, ID   CLOUDY    36  30  79 E7        29.76R
WALLA WALLA    FRZ RAIN  31  28  89 N7        29.64R FOG
PENDLETON, OR  CLOUDY    44  33  65 S9        29.60S HAZE
$$




USA.gov is the U.S. government's official web portal to all federal, state and local government web resources and services.